Nashville, TN (JWN)

Redbird FMX


Given the close proximity to downtown Nashville, Tennessee, John Tune (JWN) is a great place for the general aviation enthusiast or for someone learning how to fly. Wings of Eagles Aviation’s office is located in Hangar 1, and is accessible from the road or the ramp. The FBO is open 24 hours a day 7 days a week so there will always be someone available for help or fuel.

Address:
210 Tune Airport Dr.
Nashville, TN 37209

Phone: (615) 979-9222

Business Hours:
Monday-Sunday 7a-10p


NOAA Weather

Nashville, Nashville International Airport, TN

Last Updated on May 3 2016, 11:53 am CDT

Current Conditions: Mostly Cloudy

NOAA Icon

Temp: 63°F

Wind: NW at 8mph

Humidity: 56%

Windchill: 63°F

Your 5-Day Forecast at a Glance

Available data for KBNA from the past hour

taf

  • KBNA 031529Z 0315/0412 33005KT P6SM SCT022 BKN027 BKN050 FM031800 33010KT P6SM BKN050 FM040000 30004KT P6SM BKN060

pireps 60sm

  • BNA UA /OV BNA /TM 1751 /FL090 /TP PA32 /SK BKN-OVC085/ SKC /TA 06 /TB NEG /RM SMOOTH
  • KBNA UA /OV BNA180010/TM 1710/FL035/TP B737/SK BKN035